,,,PA_Meas_PMT16A,,PR_Meas_QMR101_102,,RH_Meas_QMH101,,SR_Meas_QMS101,,TA_Meas_QMH101,,GenWind,,GenWind,
date,time,status,PA,status,PR,status,RH,status,SR,status,TA,status,DirAvg,status,SpdAvg,
2012-03-25, 00:00:04,VALID,1004.45,VALID,0,VALID,90.7684,VALID,0,VALID,24.6185,VALID,351,VALID,0.348047,
2012-03-25, 00:01:04,VALID,1004.46,VALID,0,VALID,90.8523,VALID,0,VALID,24.6185,VALID,345,VALID,0.0121094,
2012-03-25, 00:02:04,VALID,1004.44,VALID,0,VALID,90.8905,VALID,0,VALID,24.638,VALID,328,VALID,0.630859,
2012-03-25, 00:03:04,VALID,1004.45,VALID,0,VALID,90.7684,VALID,0,VALID,24.638,VALID,291,VALID,0.667188,
2012-03-25, 00:04:04,VALID,1004.41,VALID,0,VALID,90.6006,VALID,0,VALID,24.6769,VALID,296,VALID,0.592969,
2012-03-25, 00:05:04,VALID,1004.38,VALID,0,VALID,90.3946,VALID,0,VALID,24.6964,VALID,321,VALID,0.310547,
2012-03-25, 00:06:04,VALID,1004.39,VALID,0,VALID,90.2649,VALID,0,VALID,24.7372,VALID,321,VALID,0,
2012-03-25, 00:07:04,VALID,1004.36,VALID,0,VALID,90.1734,VALID,0,VALID,24.7548,VALID,301,VALID,0.476563,
2012-03-25, 00:08:04,VALID,1004.36,VALID,0,VALID,90.0437,VALID,0,VALID,24.7548,VALID,301,VALID,0.00585938,
2012-03-25, 00:09:04,VALID,1004.32,VALID,0,VALID,89.9674,VALID,0,VALID,24.7548,VALID,284,VALID,0.684375,
2012-03-25, 00:10:04,VALID,1004.31,VALID,0,VALID,89.9521,VALID,0,VALID,24.7335,VALID,297,VALID,0.435547,
2012-03-25, 00:11:04,VALID,1004.32,VALID,0,VALID,89.9216,VALID,0,VALID,24.7335,VALID,335,VALID,0.257031,
2012-03-25, 00:12:04,VALID,1004.31,VALID,0,VALID,89.9598,VALID,0,VALID,24.7372,VALID,335,VALID,0,
2012-03-25, 00:13:04,VALID,1004.29,VALID,0,VALID,90.2115,VALID,0,VALID,24.6361,VALID,289,VALID,1.19922,
2012-03-25, 00:14:04,VALID,1004.28,VALID,0,VALID,90.2878,VALID,0,VALID,24.6964,VALID,288,VALID,0.178516,
2012-03-25, 00:15:04,VALID,1004.27,VALID,0,VALID,90.1963,VALID,0.0815089,VALID,24.675,VALID,288,VALID,0,
2012-03-25, 00:16:04,VALID,1004.28,VALID,0,VALID,90.3336,VALID,0,VALID,24.6769,VALID,344,VALID,0.966797,
2012-03-25, 00:17:04,VALID,1004.26,VALID,0,VALID,90.2878,VALID,0,VALID,24.6964,VALID,339,VALID,0.773047,
2012-03-25, 00:18:04,VALID,1004.27,VALID,0,VALID,90.3107,VALID,0,VALID,24.6945,VALID,344,VALID,1.11211,
2012-03-25, 00:19:04,VALID,1004.29,VALID,0,VALID,90.1123,VALID,0,VALID,24.714,VALID,349,VALID,0.744141,
2012-03-25, 00:20:04,VALID,1004.24,VALID,0,VALID,90.0132,VALID,0,VALID,24.7548,VALID,352,VALID,0.8375,
2012-03-25, 00:21:04,VALID,1004.23,VALID,0,VALID,89.914,VALID,0,VALID,24.7335,VALID,329,VALID,0.299609,
2012-03-25, 00:22:04,VALID,1004.24,VALID,0,VALID,89.8453,VALID,0,VALID,24.7743,VALID,251,VALID,0.566797,
2012-03-25, 00:23:04,VALID,1004.24,VALID,0,VALID,89.7919,VALID,0,VALID,24.7937,VALID,286,VALID,0.511719,
2012-03-25, 00:24:04,VALID,1004.22,VALID,0,VALID,89.6317,VALID,0,VALID,24.7919,VALID,295,VALID,0.309375,
2012-03-25, 00:25:04,VALID,1004.2,VALID,0,VALID,89.6165,VALID,0,VALID,24.8132,VALID,295,VALID,0.205859,
2012-03-25, 00:26:04,VALID,1004.17,VALID,0,VALID,89.5936,VALID,0,VALID,24.7937,VALID,295,VALID,0.0105469,
2012-03-25, 00:27:04,VALID,1004.16,VALID,0,VALID,89.6699,VALID,0,VALID,24.7529,VALID,295,VALID,0.000390625,
2012-03-25, 00:28:04,VALID,1004.17,VALID,0,VALID,89.7767,VALID,0.0815089,VALID,24.7335,VALID,275,VALID,0.678906,
2012-03-25, 00:29:04,VALID,1004.11,VALID,0,VALID,89.7233,VALID,0,VALID,24.7335,VALID,287,VALID,0.861328,
2012-03-25, 00:30:04,VALID,1004.13,VALID,0,VALID,89.6622,VALID,0,VALID,24.7335,VALID,296,VALID,0.350781,
2012-03-25, 00:31:04,VALID,1004.09,VALID,0,VALID,89.7156,VALID,0,VALID,24.7335,VALID,294,VALID,0.222266,
2012-03-25, 00:32:04,VALID,1004.06,VALID,0,VALID,89.708,VALID,0,VALID,24.714,VALID,294,VALID,0,
2012-03-25, 00:33:04,VALID,1004.08,VALID,0,VALID,89.7538,VALID,0,VALID,24.7353,VALID,296,VALID,0.769922,
2012-03-25, 00:34:04,VALID,1004.05,VALID,0,VALID,89.647,VALID,0,VALID,24.7159,VALID,295,VALID,0.872656,
2012-03-25, 00:35:04,VALID,1004.06,VALID,0,VALID,89.6317,VALID,0,VALID,24.675,VALID,291,VALID,0.324219,
2012-03-25, 00:36:04,VALID,1004.02,VALID,0,VALID,89.5631,VALID,0,VALID,24.6964,VALID,298,VALID,0.878906,
2012-03-25, 00:37:04,VALID,1004.04,VALID,0,VALID,89.5402,VALID,0,VALID,24.6556,VALID,297,VALID,0.324609,
2012-03-25, 00:38:04,VALID,1004.01,VALID,0,VALID,89.6012,VALID,0,VALID,24.638,VALID,340,VALID,0.769531,
2012-03-25, 00:39:04,VALID,1003.99,VALID,0,VALID,89.6317,VALID,0,VALID,24.6185,VALID,353,VALID,0.593359,
2012-03-25, 00:40:04,VALID,1003.98,VALID,0,VALID,89.708,VALID,0,VALID,24.599,VALID,346,VALID,0.300391,
2012-03-25, 00:41:04,VALID,1004.01,VALID,0,VALID,89.7385,VALID,0,VALID,24.5582,VALID,339,VALID,0.298438,
2012-03-25, 00:42:04,VALID,1003.98,VALID,0,VALID,89.7538,VALID,0,VALID,24.5601,VALID,339,VALID,0.0476562,
2012-03-25, 00:43:04,VALID,1004,VALID,0,VALID,89.7996,VALID,0,VALID,24.5212,VALID,295,VALID,0.725781,
2012-03-25, 00:44:04,VALID,1003.96,VALID,0,VALID,89.7233,VALID,0,VALID,24.4998,VALID,317,VALID,0.0773437,
2012-03-25, 00:45:04,VALID,1003.97,VALID,0,VALID,89.6851,VALID,0,VALID,24.4804,VALID,316,VALID,0.0640625,
2012-03-25, 00:46:04,VALID,1003.97,VALID,0,VALID,89.7385,VALID,0,VALID,24.4822,VALID,285,VALID,0.646484,
2012-03-25, 00:47:04,VALID,1003.96,VALID,0,VALID,89.8224,VALID,0,VALID,24.4628,VALID,283,VALID,0.611328,
2012-03-25, 00:48:04,VALID,1003.94,VALID,0,VALID,89.8987,VALID,0,VALID,24.4433,VALID,285,VALID,0.604297,
2012-03-25, 00:49:04,VALID,1003.94,VALID,0,VALID,89.8453,VALID,0,VALID,24.4433,VALID,285,VALID,0.733984,
2012-03-25, 00:50:04,VALID,1003.93,VALID,0,VALID,89.7919,VALID,0,VALID,24.422,VALID,280,VALID,0.944531,
2012-03-25, 00:51:04,VALID,1003.92,VALID,0,VALID,89.6622,VALID,0,VALID,24.4433,VALID,291,VALID,0.298828,
2012-03-25, 00:52:04,VALID,1003.88,VALID,0,VALID,89.3647,VALID,0,VALID,24.4804,VALID,352,VALID,0.974609,
2012-03-25, 00:53:04,VALID,1003.88,VALID,0,VALID,89.1206,VALID,0,VALID,24.5388,VALID,325,VALID,0.0609375,
2012-03-25, 00:54:04,VALID,1003.88,VALID,0,VALID,88.9451,VALID,0,VALID,24.5796,VALID,325,VALID,0,
2012-03-25, 00:55:04,VALID,1003.87,VALID,0,VALID,88.9146,VALID,0,VALID,24.5601,VALID,325,VALID,0,
2012-03-25, 00:56:04,VALID,1003.86,VALID,0,VALID,88.9833,VALID,0,VALID,24.5388,VALID,349,VALID,0.305859,
2012-03-25, 00:57:04,VALID,1003.86,VALID,0,VALID,88.968,VALID,0,VALID,24.5406,VALID,1,VALID,0.578125,
2012-03-25, 00:58:04,VALID,1003.83,VALID,0,VALID,89.029,VALID,0,VALID,24.5406,VALID,1,VALID,0,
2012-03-25, 00:59:04,VALID,1003.8,VALID,0,VALID,89.029,VALID,0,VALID,24.5212,VALID,1,VALID,0.127734,
2012-03-25, 01:00:04,VALID,1003.8,VALID,0,VALID,89.0519,VALID,0,VALID,24.4998,VALID,353,VALID,0.198828,
2012-03-25, 01:01:04,VALID,1003.77,VALID,0,VALID,89.0595,VALID,0,VALID,24.5017,VALID,266,VALID,0.594141,
2012-03-25, 01:02:04,VALID,1003.79,VALID,0,VALID,89.1511,VALID,0,VALID,24.4609,VALID,278,VALID,0.241797,
2012-03-25, 01:03:04,VALID,1003.75,VALID,0,VALID,89.2198,VALID,0,VALID,24.4414,VALID,301,VALID,0.383594,
2012-03-25, 01:04:04,VALID,1003.75,VALID,0,VALID,89.2121,VALID,0,VALID,24.4628,VALID,328,VALID,0.219141,
2012-03-25, 01:05:04,VALID,1003.74,VALID,0,VALID,89.2121,VALID,0,VALID,24.4628,VALID,292,VALID,0.709766,
2012-03-25, 01:06:04,VALID,1003.72,VALID,0,VALID,89.1206,VALID,0,VALID,24.4628,VALID,292,VALID,0.452734,
2012-03-25, 01:07:04,VALID,1003.69,VALID,0,VALID,89.0519,VALID,0,VALID,24.4609,VALID,332,VALID,0.153906,
2012-03-25, 01:08:04,VALID,1003.67,VALID,0,VALID,88.9146,VALID,0,VALID,24.5017,VALID,298,VALID,0.513672,
2012-03-25, 01:09:04,VALID,1003.63,VALID,0,VALID,88.8002,VALID,0,VALID,24.4998,VALID,343,VALID,0.272656,
2012-03-25, 01:10:04,VALID,1003.62,VALID,0,VALID,88.7315,VALID,0,VALID,24.5406,VALID,345,VALID,0.355078,
2012-03-25, 01:11:04,VALID,1003.59,VALID,0,VALID,88.6552,VALID,0,VALID,24.5406,VALID,285,VALID,0.247656,
2012-03-25, 01:12:04,VALID,1003.59,VALID,0,VALID,88.6247,VALID,0,VALID,24.5193,VALID,285,VALID,0.0078125,
2012-03-25, 01:13:04,VALID,1003.6,VALID,0,VALID,88.6705,VALID,0,VALID,24.4998,VALID,326,VALID,0.644531,
2012-03-25, 01:14:04,VALID,1003.56,VALID,0,VALID,88.8154,VALID,0,VALID,24.4609,VALID,302,VALID,0,
2012-03-25, 01:15:04,VALID,1003.53,VALID,0,VALID,88.9527,VALID,0,VALID,24.422,VALID,302,VALID,0,
2012-03-25, 01:16:04,VALID,1003.54,VALID,0,VALID,89.0977,VALID,0,VALID,24.4043,VALID,302,VALID,0.0875,
2012-03-25, 01:17:04,VALID,1003.51,VALID,0,VALID,89.2045,VALID,0.0815089,VALID,24.3636,VALID,302,VALID,0.0230469,
2012-03-25, 01:18:04,VALID,1003.51,VALID,0,VALID,89.2655,VALID,0,VALID,24.3636,VALID,302,VALID,0.178516,
2012-03-25, 01:19:04,VALID,1003.53,VALID,0,VALID,89.2808,VALID,0.0815089,VALID,24.3441,VALID,302,VALID,0,
2012-03-25, 01:20:04,VALID,1003.54,VALID,0,VALID,89.3876,VALID,0,VALID,24.3265,VALID,302,VALID,0,
2012-03-25, 01:21:04,VALID,1003.54,VALID,0,VALID,89.441,VALID,0.0815089,VALID,24.3265,VALID,302,VALID,0,
2012-03-25, 01:22:04,VALID,1003.54,VALID,0,VALID,89.502,VALID,0,VALID,24.2662,VALID,302,VALID,0,
2012-03-25, 01:23:04,VALID,1003.52,VALID,0,VALID,89.6699,VALID,0,VALID,24.2662,VALID,302,VALID,0.00117188,
2012-03-25, 01:24:04,VALID,1003.48,VALID,0,VALID,89.6546,VALID,0,VALID,24.2875,VALID,322,VALID,0.572266,
2012-03-25, 01:25:04,VALID,1003.47,VALID,0,VALID,89.5478,VALID,0,VALID,24.2681,VALID,333,VALID,0.528516,
2012-03-25, 01:26:04,VALID,1003.43,VALID,0,VALID,89.5631,VALID,0.0815089,VALID,24.2468,VALID,334,VALID,0.248828,
2012-03-25, 01:27:04,VALID,1003.41,VALID,0,VALID,89.5097,VALID,0.0815089,VALID,24.2857,VALID,335,VALID,0.397656,
2012-03-25, 01:28:04,VALID,1003.4,VALID,0,VALID,89.38,VALID,0.0815089,VALID,24.2662,VALID,344,VALID,0.537109,
2012-03-25, 01:29:04,VALID,1003.35,VALID,0,VALID,89.3342,VALID,0.0815089,VALID,24.2662,VALID,344,VALID,0.15625,
2012-03-25, 01:30:04,VALID,1003.36,VALID,0,VALID,89.2121,VALID,0,VALID,24.2857,VALID,344,VALID,0.106641,
2012-03-25, 01:31:04,VALID,1003.36,VALID,0,VALID,89.3266,VALID,0,VALID,24.2681,VALID,324,VALID,0.435547,
2012-03-25, 01:32:04,VALID,1003.32,VALID,0,VALID,89.3342,VALID,0,VALID,24.2468,VALID,354,VALID,0.585547,
2012-03-25, 01:33:04,VALID,1003.31,VALID,0,VALID,89.2655,VALID,0.0815089,VALID,24.2857,VALID,356,VALID,0.584766,
2012-03-25, 01:34:04,VALID,1003.28,VALID,0,VALID,88.8917,VALID,0,VALID,24.383,VALID,349,VALID,0.801562,
2012-03-25, 01:35:04,VALID,1003.3,VALID,0,VALID,88.1822,VALID,0.0815089,VALID,24.5193,VALID,349,VALID,0.0527344,
2012-03-25, 01:36:04,VALID,1003.25,VALID,0,VALID,87.8847,VALID,0,VALID,24.5796,VALID,349,VALID,0,
2012-03-25, 01:37:04,VALID,1003.25,VALID,0,VALID,87.7779,VALID,0.0815089,VALID,24.5777,VALID,349,VALID,0,
2012-03-25, 01:38:04,VALID,1003.25,VALID,0,VALID,87.7474,VALID,0.0815089,VALID,24.5796,VALID,349,VALID,0.0128906,
2012-03-25, 01:39:04,VALID,1003.2,VALID,0,VALID,87.8618,VALID,0,VALID,24.5388,VALID,349,VALID,0.0765625,
2012-03-25, 01:40:04,VALID,1003.2,VALID,0,VALID,87.961,VALID,0.0815089,VALID,24.5796,VALID,304,VALID,0.732031,
2012-03-25, 01:41:04,VALID,1003.19,VALID,0,VALID,87.6635,VALID,0.0815089,VALID,24.5582,VALID,302,VALID,0.318359,
2012-03-25, 01:42:04,VALID,1003.2,VALID,0,VALID,88.022,VALID,0.0815089,VALID,24.4998,VALID,302,VALID,0.404687,
2012-03-25, 01:43:04,VALID,1003.17,VALID,0,VALID,88.2967,VALID,0,VALID,24.4609,VALID,302,VALID,0.0867188,
2012-03-25, 01:44:04,VALID,1003.14,VALID,0,VALID,88.3272,VALID,0.0815089,VALID,24.4414,VALID,302,VALID,0.00742187,
2012-03-25, 01:45:04,VALID,1003.13,VALID,0,VALID,88.5332,VALID,0.0815089,VALID,24.4025,VALID,302,VALID,0,
2012-03-25, 01:46:04,VALID,1003.12,VALID,0,VALID,88.8841,VALID,0,VALID,24.3849,VALID,320,VALID,0.0410156,
2012-03-25, 01:47:04,VALID,1003.11,VALID,0,VALID,88.9909,VALID,0.0815089,VALID,24.3441,VALID,288,VALID,0,
2012-03-25, 01:48:04,VALID,1003.06,VALID,0,VALID,88.9985,VALID,0.0815089,VALID,24.3052,VALID,299,VALID,0.505469,
2012-03-25, 01:49:04,VALID,1003.06,VALID,0,VALID,89.1206,VALID,0,VALID,24.2662,VALID,302,VALID,0.262891,
2012-03-25, 01:50:04,VALID,1003.05,VALID,0,VALID,89.4486,VALID,0,VALID,24.2291,VALID,302,VALID,0.172266,
2012-03-25, 01:51:04,VALID,1003.04,VALID,0,VALID,89.5859,VALID,0,VALID,24.1513,VALID,337,VALID,0.550391,
2012-03-25, 01:52:04,VALID,1002.97,VALID,0,VALID,90.1047,VALID,0,VALID,24.091,VALID,338,VALID,0.463672,
2012-03-25, 01:53:04,VALID,1002.97,VALID,0,VALID,90.1734,VALID,0,VALID,24.0539,VALID,338,VALID,0.390625,
2012-03-25, 01:54:04,VALID,1002.96,VALID,0,VALID,90.4709,VALID,0.0815089,VALID,23.9937,VALID,338,VALID,0.340234,
2012-03-25, 01:55:04,VALID,1002.97,VALID,0,VALID,90.4633,VALID,0,VALID,23.9548,VALID,338,VALID,0.364062,
2012-03-25, 01:56:04,VALID,1002.96,VALID,0,VALID,90.8066,VALID,0,VALID,23.8982,VALID,338,VALID,0.391016,
2012-03-25, 01:57:04,VALID,1002.95,VALID,0,VALID,91.333,VALID,0.0815089,VALID,23.8575,VALID,338,VALID,0,
2012-03-25, 01:58:04,VALID,1002.94,VALID,0,VALID,91.3177,VALID,0.0815089,VALID,23.8185,VALID,338,VALID,0,
2012-03-25, 01:59:04,VALID,1002.95,VALID,0,VALID,91.4474,VALID,0,VALID,23.8203,VALID,338,VALID,0,
2012-03-25, 02:00:04,VALID,1002.94,VALID,0,VALID,91.6915,VALID,0,VALID,23.7796,VALID,338,VALID,0,
2012-03-25, 02:01:04,VALID,1002.93,VALID,0,VALID,91.7525,VALID,0,VALID,23.7814,VALID,338,VALID,0,
2012-03-25, 02:02:04,VALID,1002.92,VALID,0,VALID,91.7678,VALID,0,VALID,23.7601,VALID,338,VALID,0,
2012-03-25, 02:03:04,VALID,1002.92,VALID,0,VALID,92.0958,VALID,0,VALID,23.7814,VALID,333,VALID,0.321094,
2012-03-25, 02:04:04,VALID,1002.9,VALID,0,VALID,91.9204,VALID,0.0815089,VALID,23.7601,VALID,336,VALID,0.321484,
2012-03-25, 02:05:04,VALID,1002.92,VALID,0,VALID,92.0653,VALID,0,VALID,23.7407,VALID,336,VALID,0.0464844,
2012-03-25, 02:06:04,VALID,1002.9,VALID,0,VALID,92.2027,VALID,0,VALID,23.7601,VALID,336,VALID,0.430469,
2012-03-25, 02:07:04,VALID,1002.92,VALID,0,VALID,92.2637,VALID,0,VALID,23.7601,VALID,336,VALID,0.339063,
2012-03-25, 02:08:04,VALID,1002.9,VALID,0,VALID,92.2637,VALID,0,VALID,23.7796,VALID,336,VALID,0.171875,
2012-03-25, 02:09:04,VALID,1002.89,VALID,0,VALID,91.989,VALID,0,VALID,23.7796,VALID,336,VALID,0.295703,
2012-03-25, 02:10:04,VALID,1002.87,VALID,0,VALID,92.195,VALID,0,VALID,23.7601,VALID,336,VALID,0.0800781,
2012-03-25, 02:11:04,VALID,1002.88,VALID,0,VALID,92.2561,VALID,0,VALID,23.7796,VALID,336,VALID,0.104687,
2012-03-25, 02:12:04,VALID,1002.87,VALID,0,VALID,92.2179,VALID,0,VALID,23.7796,VALID,334,VALID,0.0371094,
2012-03-25, 02:13:04,VALID,1002.89,VALID,0,VALID,92.1721,VALID,0.0815089,VALID,23.7796,VALID,335,VALID,0.441016,
2012-03-25, 02:14:04,VALID,1002.89,VALID,0,VALID,92.2637,VALID,0,VALID,23.8009,VALID,335,VALID,0.00195313,
2012-03-25, 02:15:04,VALID,1002.85,VALID,0,VALID,92.4315,VALID,0,VALID,23.8009,VALID,296,VALID,0.778516,
2012-03-25, 02:16:04,VALID,1002.84,VALID,0,VALID,92.2942,VALID,0,VALID,23.8398,VALID,296,VALID,0.294531,
2012-03-25, 02:17:04,VALID,1002.81,VALID,0,VALID,92.1569,VALID,0.0815089,VALID,23.838,VALID,324,VALID,0.538281,
2012-03-25, 02:18:04,VALID,1002.81,VALID,0,VALID,92.2332,VALID,0,VALID,23.8769,VALID,343,VALID,0.628516,
2012-03-25, 02:19:04,VALID,1002.8,VALID,0,VALID,92.0348,VALID,0.0815089,VALID,23.8964,VALID,337,VALID,0.0730469,
2012-03-25, 02:20:04,VALID,1002.81,VALID,0,VALID,91.9509,VALID,0,VALID,23.9159,VALID,337,VALID,0,
2012-03-25, 02:21:04,VALID,1002.82,VALID,0,VALID,91.9204,VALID,0,VALID,23.9371,VALID,337,VALID,0,
2012-03-25, 02:22:04,VALID,1002.78,VALID,0,VALID,91.9662,VALID,0,VALID,23.9566,VALID,337,VALID,0.221875,
2012-03-25, 02:23:04,VALID,1002.8,VALID,0,VALID,92.0043,VALID,0,VALID,23.9742,VALID,347,VALID,0.321094,
2012-03-25, 02:24:04,VALID,1002.76,VALID,0,VALID,91.7373,VALID,0,VALID,24.0132,VALID,347,VALID,0.548828,
2012-03-25, 02:25:04,VALID,1002.72,VALID,0,VALID,91.5084,VALID,0,VALID,24.0521,VALID,348,VALID,0,
2012-03-25, 02:26:04,VALID,1002.75,VALID,0,VALID,91.4092,VALID,0,VALID,24.0521,VALID,348,VALID,0,
2012-03-25, 02:27:04,VALID,1002.73,VALID,0,VALID,91.3406,VALID,0,VALID,24.0521,VALID,348,VALID,0.205078,
2012-03-25, 02:28:04,VALID,1002.7,VALID,0,VALID,91.2185,VALID,0,VALID,24.0539,VALID,348,VALID,0,
2012-03-25, 02:29:04,VALID,1002.71,VALID,0,VALID,91.2262,VALID,0,VALID,24.0326,VALID,348,VALID,0.392969,
2012-03-25, 02:30:04,VALID,1002.69,VALID,0,VALID,91.3406,VALID,0.0815089,VALID,24.0539,VALID,348,VALID,0.442187,
2012-03-25, 02:31:04,VALID,1002.7,VALID,0,VALID,91.3482,VALID,0,VALID,24.0539,VALID,347,VALID,0.423828,
2012-03-25, 02:32:04,VALID,1002.72,VALID,0,VALID,91.1193,VALID,0.0815089,VALID,24.0345,VALID,348,VALID,0.364844,
2012-03-25, 02:33:04,VALID,1002.68,VALID,0,VALID,91.1499,VALID,0,VALID,23.9937,VALID,348,VALID,0.338672,
2012-03-25, 02:34:04,VALID,1002.67,VALID,0,VALID,91.2643,VALID,0.0815089,VALID,23.9742,VALID,348,VALID,0.00859375,
2012-03-25, 02:35:04,VALID,1002.69,VALID,0,VALID,91.6839,VALID,0,VALID,23.9548,VALID,348,VALID,0.285547,
2012-03-25, 02:36:04,VALID,1002.68,VALID,0,VALID,91.6229,VALID,0.0815089,VALID,23.9742,VALID,348,VALID,0.0289063,
2012-03-25, 02:37:04,VALID,1002.67,VALID,0,VALID,91.4016,VALID,0.0815089,VALID,23.953,VALID,348,VALID,0.664453,
2012-03-25, 02:38:04,VALID,1002.66,VALID,0,VALID,91.394,VALID,0,VALID,23.9353,VALID,348,VALID,0.604297,
2012-03-25, 02:39:04,VALID,1002.7,VALID,0,VALID,91.6305,VALID,0,VALID,23.9371,VALID,348,VALID,0.460156,
2012-03-25, 02:40:04,VALID,1002.72,VALID,0,VALID,91.722,VALID,0.0815089,VALID,23.9159,VALID,349,VALID,0.625,
2012-03-25, 02:41:04,VALID,1002.69,VALID,0,VALID,91.6,VALID,0,VALID,23.8769,VALID,350,VALID,0.589063,
2012-03-25, 02:42:04,VALID,1002.69,VALID,0,VALID,92.1111,VALID,0,VALID,23.9177,VALID,350,VALID,0.616797,
2012-03-25, 02:43:04,VALID,1002.73,VALID,0,VALID,92.0196,VALID,0.0815089,VALID,23.9177,VALID,356,VALID,0.699219,
2012-03-25, 02:44:04,VALID,1002.71,VALID,0,VALID,91.9738,VALID,0,VALID,23.8769,VALID,345,VALID,0.38125,
2012-03-25, 02:45:04,VALID,1002.73,VALID,0,VALID,92.0501,VALID,0,VALID,23.8982,VALID,345,VALID,0.328906,
2012-03-25, 02:46:04,VALID,1002.72,VALID,0,VALID,92.2408,VALID,0.0815089,VALID,23.8946,VALID,346,VALID,0.242969,
2012-03-25, 02:47:04,VALID,1002.72,VALID,0,VALID,92.2103,VALID,0,VALID,23.9159,VALID,346,VALID,0,
2012-03-25, 02:48:04,VALID,1002.72,VALID,0,VALID,92.0348,VALID,0,VALID,23.9159,VALID,346,VALID,0.692187,
2012-03-25, 02:49:04,VALID,1002.74,VALID,0,VALID,92.3629,VALID,0,VALID,23.9761,VALID,348,VALID,0.809375,
2012-03-25, 02:50:04,VALID,1002.74,VALID,0,VALID,92.2408,VALID,0,VALID,24.0539,VALID,343,VALID,0,
2012-03-25, 02:51:04,VALID,1002.72,VALID,0,VALID,92.1798,VALID,0,VALID,24.0716,VALID,345,VALID,0.523438,
2012-03-25, 02:52:04,VALID,1002.72,VALID,0,VALID,92.0501,VALID,0.0815089,VALID,24.1494,VALID,335,VALID,0.710547,
2012-03-25, 02:53:04,VALID,1002.7,VALID,0,VALID,91.7602,VALID,0,VALID,24.2078,VALID,337,VALID,0.112109,
2012-03-25, 02:54:04,VALID,1002.7,VALID,0,VALID,91.394,VALID,0,VALID,24.2273,VALID,337,VALID,0.0675781,
2012-03-25, 02:55:04,VALID,1002.7,VALID,0,VALID,91.394,VALID,0,VALID,24.2468,VALID,340,VALID,0.534375,
2012-03-25, 02:56:04,VALID,1002.7,VALID,0,VALID,91.2567,VALID,0,VALID,24.2857,VALID,331,VALID,0.288281,
2012-03-25, 02:57:04,VALID,1002.71,VALID,0,VALID,91.2185,VALID,0,VALID,24.3052,VALID,1,VALID,0.910156,
2012-03-25, 02:58:04,VALID,1002.73,VALID,0,VALID,91.0736,VALID,0,VALID,24.3849,VALID,348,VALID,0.183203,
2012-03-25, 02:59:04,VALID,1002.74,VALID,0,VALID,90.8218,VALID,0,VALID,24.4414,VALID,3,VALID,0.397266,
2012-03-25, 03:00:04,VALID,1002.78,VALID,0,VALID,90.5548,VALID,0,VALID,24.5212,VALID,278,VALID,0.671094,
2012-03-25, 03:01:04,VALID,1002.7,VALID,0,VALID,90.2191,VALID,0,VALID,24.5388,VALID,326,VALID,0.564844,
2012-03-25, 03:02:04,VALID,1002.75,VALID,0,VALID,89.9826,VALID,0,VALID,24.5972,VALID,353,VALID,0.474219,
2012-03-25, 03:03:04,VALID,1002.75,VALID,0,VALID,89.7614,VALID,0,VALID,24.6574,VALID,353,VALID,0.00351562,
2012-03-25, 03:04:04,VALID,1002.76,VALID,0,VALID,89.5554,VALID,0,VALID,24.6945,VALID,345,VALID,0.535937,
2012-03-25, 03:05:04,VALID,1002.77,VALID,0,VALID,89.113,VALID,0,VALID,24.7743,VALID,285,VALID,0.311719,
2012-03-25, 03:06:04,VALID,1002.77,VALID,0,VALID,88.8688,VALID,0,VALID,24.7919,VALID,285,VALID,0.0757812,
2012-03-25, 03:07:04,VALID,1002.8,VALID,0,VALID,88.8154,VALID,0,VALID,24.8132,VALID,283,VALID,0.329297,
2012-03-25, 03:08:04,VALID,1002.79,VALID,0,VALID,88.6934,VALID,0,VALID,24.8113,VALID,314,VALID,0.538281,
2012-03-25, 03:09:04,VALID,1002.76,VALID,0,VALID,88.5789,VALID,0,VALID,24.8522,VALID,342,VALID,0.547656,
2012-03-25, 03:10:04,VALID,1002.78,VALID,0,VALID,88.4416,VALID,0.0815089,VALID,24.8503,VALID,360,VALID,0.271484,
2012-03-25, 03:11:04,VALID,1002.79,VALID,0,VALID,88.2585,VALID,0,VALID,24.893,VALID,276,VALID,0.503125,
2012-03-25, 03:12:04,VALID,1002.74,VALID,0,VALID,88.1517,VALID,0,VALID,24.8716,VALID,276,VALID,0.726953,
2012-03-25, 03:13:04,VALID,1002.78,VALID,0,VALID,88.1212,VALID,0,VALID,24.8911,VALID,277,VALID,0.549219,
2012-03-25, 03:14:04,VALID,1002.74,VALID,0,VALID,88.1975,VALID,0,VALID,24.893,VALID,277,VALID,0.0582031,
2012-03-25, 03:15:04,VALID,1002.73,VALID,0,VALID,88.3119,VALID,0,VALID,24.8735,VALID,277,VALID,0,
2012-03-25, 03:16:04,VALID,1002.74,VALID,0,VALID,88.3882,VALID,0,VALID,24.8327,VALID,277,VALID,0.00664063,
2012-03-25, 03:17:04,VALID,1002.73,VALID,0,VALID,88.4721,VALID,0,VALID,24.8132,VALID,277,VALID,0,
2012-03-25, 03:18:04,VALID,1002.73,VALID,0,VALID,88.5484,VALID,0,VALID,24.7937,VALID,277,VALID,0,
2012-03-25, 03:19:04,VALID,1002.69,VALID,0,VALID,88.6323,VALID,0,VALID,24.7937,VALID,283,VALID,0.477344,
2012-03-25, 03:20:04,VALID,1002.73,VALID,0,VALID,88.7086,VALID,0,VALID,24.7743,VALID,291,VALID,0.240625,
2012-03-25, 03:21:04,VALID,1002.72,VALID,0,VALID,88.7544,VALID,0,VALID,24.7529,VALID,356,VALID,0.369531,
2012-03-25, 03:22:04,VALID,1002.73,VALID,0,VALID,88.8078,VALID,0,VALID,24.7743,VALID,352,VALID,0.0746094,
2012-03-25, 03:23:04,VALID,1002.72,VALID,0,VALID,88.8765,VALID,0,VALID,24.7548,VALID,314,VALID,0.441016,
2012-03-25, 03:24:04,VALID,1002.74,VALID,0,VALID,88.9146,VALID,0,VALID,24.7335,VALID,283,VALID,0.0410156,
2012-03-25, 03:25:04,VALID,1002.76,VALID,0,VALID,88.9756,VALID,0,VALID,24.7353,VALID,284,VALID,0.209766,
2012-03-25, 03:26:04,VALID,1002.76,VALID,0,VALID,88.9756,VALID,0,VALID,24.7548,VALID,279,VALID,0.309375,
2012-03-25, 03:27:04,VALID,1002.74,VALID,0,VALID,88.9527,VALID,0,VALID,24.7548,VALID,279,VALID,0.144531,
2012-03-25, 03:28:04,VALID,1002.75,VALID,0,VALID,88.968,VALID,0,VALID,24.7548,VALID,299,VALID,0.335547,
2012-03-25, 03:29:04,VALID,1002.73,VALID,0,VALID,88.9299,VALID,0,VALID,24.7548,VALID,348,VALID,0.194531,
2012-03-25, 03:30:04,VALID,1002.75,VALID,0,VALID,88.9146,VALID,0,VALID,24.7335,VALID,348,VALID,0,
2012-03-25, 03:31:04,VALID,1002.74,VALID,0,VALID,88.9375,VALID,0,VALID,24.7548,VALID,339,VALID,0.464063,
2012-03-25, 03:32:04,VALID,1002.73,VALID,0,VALID,88.9299,VALID,0,VALID,24.7548,VALID,349,VALID,0.55625,
2012-03-25, 03:33:04,VALID,1002.72,VALID,0,VALID,88.9527,VALID,0,VALID,24.7548,VALID,326,VALID,0.219922,
2012-03-25, 03:34:04,VALID,1002.69,VALID,0,VALID,88.8917,VALID,0,VALID,24.7548,VALID,340,VALID,0.317969,
2012-03-25, 03:35:04,VALID,1002.64,VALID,0,VALID,88.8307,VALID,0,VALID,24.7937,VALID,337,VALID,0.578125,
2012-03-25, 03:36:04,VALID,1002.62,VALID,0,VALID,88.6705,VALID,0,VALID,24.8327,VALID,334,VALID,0.563672,
2012-03-25, 03:37:04,VALID,1002.66,VALID,0,VALID,88.5332,VALID,0,VALID,24.8716,VALID,338,VALID,0.546094,
2012-03-25, 03:38:04,VALID,1002.65,VALID,0,VALID,88.4187,VALID,0.0815089,VALID,24.8697,VALID,341,VALID,0,
2012-03-25, 03:39:04,VALID,1002.68,VALID,0,VALID,88.4187,VALID,0,VALID,24.8911,VALID,341,VALID,0,
2012-03-25, 03:40:04,VALID,1002.64,VALID,0,VALID,88.3272,VALID,0,VALID,24.8911,VALID,337,VALID,0.732813,
2012-03-25, 03:41:04,VALID,1002.67,VALID,0,VALID,88.2433,VALID,0,VALID,24.9087,VALID,345,VALID,0.126563,
2012-03-25, 03:42:04,VALID,1002.7,VALID,0,VALID,88.1975,VALID,0,VALID,24.9495,VALID,326,VALID,0.371094,
2012-03-25, 03:43:04,VALID,1002.7,VALID,0,VALID,88.1517,VALID,0,VALID,24.9282,VALID,327,VALID,0.328906,